Location: Bushrod
(6.3500°N, 10.7833°W)
Time: 10:53:17
(UTC+00:00)

Cosmos 405 - Pass Details

Date: 17 September 2019
Orbit: 452 x 467 km, 81.3° (Epoch: 14 October)

Event Time Altitude Azimuth Distance (km) Brightness Sun altitude
Rises 19:27:53 0° 5° (N) 2,450 6.6 -12.2°
Reaches altitude 10° 19:30:01 10° 12° (NNE) 1,578 5.6 -12.8°
Maximum altitude 19:33:18 42° 84° (E) 657 3.2 -13.6°
Drops below altitude 10° 19:36:34 10° 157° (SSE) 1,580 5.4 -14.4°
Enters shadow 19:38:32 - 163° (SSE) 2,383 6.4 -14.9°
